Location: Branche des Alpilles
(43.6087°N, 4.6976°E)
Time: 13:13:09
(UTC+00:00)

Meteor 1-11 Rocket - Pass Details

Date: 30 November 2020
Orbit: 831 x 915 km, 81.2° (Epoch: 25 January)

Event Time Altitude Azimuth Distance (km) Brightness Sun altitude
Rises 17:39:06 0° 358° (N) 3,471 6.8 -16.4°
Reaches altitude 10° 17:41:49 10° 8° (N) 2,543 6.0 -16.9°
Maximum altitude 17:46:56 32° 71° (ENE) 1,499 4.4 -17.8°
Enters shadow 17:48:50 26° 104° (ESE) 1,687 4.8 -18.1°
Exits shadow 17:54:13 - 141° (SE) 3,291 6.5 -19.1°
Sets 17:54:52 0° 143° (SE) 3,521 6.7 -19.2°
